Weather History for Mountain Home, ID

Change the Weather History Date:

Wednesday, April 23, 2014

  Actual Average Record
Temperature  
Mean Temperature 43 °F 51 °F  
Max Temperature 57 °F 65 °F 88 °F (2012)
Min Temperature 29 °F 37 °F 17 °F (1968)
Degree Days  
Heating Degree Days 22 14  
Month to date heating degree days 324 385  
Cooling Degree Days 0 0  
Month to date cooling degree days 0 0  
Moisture  
Dew Point 28 °F    
Average Humidity 56    
Maximum Humidity 100    
Minimum Humidity 28    
Precipitation  
Precipitation 0.00 in 0.03 in 0.26 in (2003)
Month to date precipitation 0.19 0.80  
Sea Level Pressure  
Sea Level Pressure 30.01 in    
Wind  
Wind Speed 6 mph (NNW)    
Max Wind Speed 10 mph    
Max Gust Speed -    
Visibility 10 miles    
Events      
T = Trace of Precipitation, MM = Missing Value Source: NWS Daily Summary

Daily Weather History Graph

Daily Weather History Graph

Search for Another Location

Airport:

Trip Planner

Search our weather history database for the weather conditions in past years. The results will help you decide how hot, cold, wet, or windy it might be!

Date:

Astronomy

Apr. 23, 2014 Rise Set
Actual Time 6:48 AM MDT 8:35 PM MDT
Civil Twilight 6:18 AM MDT 9:05 PM MDT
Nautical Twilight 5:41 AM MDT 9:42 PM MDT
Astronomical Twilight 5:02 AM MDT 10:22 PM MDT
Moon 3:32 AM MDT (4/23) 2:40 PM MDT (4/23)
Length of Visible Light 14h 47m
Length of Day
13h 46m
Waning Crescent, 34% of the Moon is Illuminated
Apr 23
Waning Crescent
Apr 29
New
May 6
First Quarter
May 14
Full
May 21
Last Quarter

Hourly Weather History & Observations

Time (MDT) Temp. Windchill Dew Point Humidity Pressure Visibility Wind Dir Wind Speed Gust Speed Precip Events Conditions
12:58 AM 36.0 °F 28.5 °F 36.0 °F 100% 29.96 in 10.0 mi West 10.4 mph - N/A   Clear
1:58 AM 33.8 °F 29.6 °F 33.8 °F 100% 29.97 in 10.0 mi WNW 4.6 mph - N/A   Clear
2:58 AM 33.6 °F 26.2 °F 33.6 °F 100% 29.97 in 10.0 mi WNW 9.2 mph - N/A   Clear
3:58 AM 33.8 °F 27.7 °F 33.4 °F 99% 29.98 in 10.0 mi NW 6.9 mph - N/A   Clear
4:58 AM 32.7 °F 25.7 °F 32.0 °F 97% 29.99 in 10.0 mi NNW 8.1 mph - N/A   Clear
5:58 AM 33.3 °F 26.4 °F 30.4 °F 89% 30.00 in 10.0 mi WNW 8.1 mph - N/A   Clear
6:58 AM 29.5 °F 25.9 °F 29.3 °F 99% 30.03 in 10.0 mi NW 3.5 mph - N/A   Clear
7:58 AM 32.4 °F - 32.2 °F 99% 30.05 in 10.0 mi SW 2.3 mph - N/A   Clear
8:58 AM 39.7 °F 37.6 °F 29.7 °F 67% 30.06 in 10.0 mi South 3.5 mph - N/A   Clear
9:58 AM 43.0 °F - 28.4 °F 56% 30.06 in 10.0 mi Calm Calm - N/A   Clear
10:58 AM 46.8 °F - 26.2 °F 45% 30.06 in 10.0 mi Variable 2.3 mph - N/A   Clear
11:58 AM 50.2 °F - 25.2 °F 38% 30.06 in 10.0 mi SW 5.8 mph - N/A   Mostly Cloudy
12:58 PM 52.9 °F - 24.3 °F 33% 30.04 in 10.0 mi SW 9.2 mph - N/A   Scattered Clouds
1:28 PM 53.6 °F - 24.8 °F 33% 30.02 in 10.0 mi Variable 2.3 mph - N/A   Mostly Cloudy
1:58 PM 54.5 °F - 22.8 °F 29% 30.04 in 10.0 mi WNW 5.8 mph - N/A   Overcast
2:58 PM 53.4 °F - 26.8 °F 36% 30.03 in 10.0 mi Variable 6.9 mph - N/A   Mostly Cloudy
3:08 PM 53.6 °F - 26.6 °F 35% 30.01 in 10.0 mi NNW 8.1 mph - N/A   Mostly Cloudy
3:38 PM 53.6 °F - 26.6 °F 35% 30.00 in 10.0 mi Variable 3.5 mph - N/A   Mostly Cloudy
3:43 PM 53.6 °F - 26.6 °F 35% 29.99 in 10.0 mi Calm Calm - N/A   Mostly Cloudy
3:58 PM 54.3 °F - 26.6 °F 34% 30.01 in 10.0 mi North 9.2 mph - N/A   Mostly Cloudy
4:08 PM 55.4 °F - 26.6 °F 33% 29.99 in 10.0 mi North 8.1 mph - N/A   Scattered Clouds
4:58 PM 55.6 °F - 24.8 °F 30% 29.99 in 10.0 mi NNE 6.9 mph - N/A   Partly Cloudy
5:58 PM 55.9 °F - 24.4 °F 30% 29.98 in 10.0 mi Variable 3.5 mph - N/A   Scattered Clouds
6:58 PM 56.7 °F - 23.9 °F 28% 29.98 in 10.0 mi East 6.9 mph - N/A   Clear
7:58 PM 55.6 °F - 23.4 °F 29% 29.98 in 10.0 mi ENE 4.6 mph - N/A   Mostly Cloudy
8:58 PM 50.5 °F - 26.2 °F 39% 29.97 in 10.0 mi ENE 6.9 mph - N/A   Scattered Clouds
9:58 PM 45.9 °F 42.9 °F 29.8 °F 54% 30.00 in 10.0 mi East 5.8 mph - N/A   Overcast
10:58 PM 43.3 °F 38.6 °F 27.9 °F 54% 29.99 in 10.0 mi East 8.1 mph - N/A   Scattered Clouds
11:58 PM 41.4 °F 36.8 °F 27.9 °F 59% 29.98 in 10.0 mi ESE 6.9 mph - N/A   Partly Cloudy